| time (UTC) | temp C | wind direction | speed KPH | gust KPH | rain 1hr cm | rain 24hr cm | rain mn cm | humidity % | barometer mb |
| 20260905233010 | 13 | 0.0 | 0.0 | 0.00 | 0.00 | 0.00 | 86 | 1002.4 | |
| 20260905231010 | 13 | 0.0 | 0.0 | 0.00 | 0.00 | 0.00 | 85 | 1002.3 | |
| 20260905225014 | 13 | 0.0 | 0.0 | 0.00 | 0.00 | 0.00 | 84 | 1002.2 | |
| 20260905223009 | 13 | 0.0 | 0.0 | 0.00 | 0.00 | 0.00 | 83 | 1002.1 | |
| 20260905222011 | 14 | 0.0 | 0.0 | 0.00 | 0.00 | 0.00 | 82 | 1002.0 | |
| 20260905221009 | 14 | 0.0 | 0.0 | 0.00 | 0.00 | 0.00 | 81 | 1001.9 | |
| 20260905215009 | 14 | 0.0 | 0.0 | 0.00 | 0.00 | 0.00 | 81 | 1001.8 | |
| 20260905205016 | 14 | 0.0 | 0.0 | 0.00 | 0.00 | 0.00 | 81 | 1001.4 | |
| 20260905204015 | 14 | 0.0 | 0.0 | 0.00 | 0.00 | 0.00 | 82 | 1001.4 | |
| 20260905203009 | 14 | 0.0 | 0.0 | 0.00 | 0.00 | 0.00 | 82 | 1001.4 | |
| 20260905201010 | 13 | 0.0 | 0.0 | 0.00 | 0.00 | 0.00 | 82 | 1001.2 | |
| 20260905195012 | 13 | 0.0 | 0.0 | 0.00 | 0.00 | 0.00 | 82 | 1001.2 | |
| 20260905194011 | 13 | 0.0 | 0.0 | 0.00 | 0.00 | 0.00 | 81 | 1001.3 | |
| 20260905192015 | 13 | 0.0 | 0.0 | 0.00 | 0.00 | 0.00 | 80 | 1001.4 | |
| 20260905191012 | 13 | 0.0 | 0.0 | 0.00 | 0.00 | 0.00 | 79 | 1001.5 | |
| 20260905185017 | 13 | 0.0 | 0.0 | 0.00 | 0.00 | 0.00 | 78 | 1001.6 | |
| 20260905183016 | 13 | 0.0 | 0.0 | 0.00 | 0.00 | 0.00 | 77 | 1001.8 | |
| 20260905182013 | 13 | 0.0 | 0.0 | 0.00 | 0.00 | 0.00 | 77 | 1001.9 | |
| 20260905180011 | 13 | 0.0 | 0.0 | 0.00 | 0.00 | 0.00 | 80 | 1002.0 | |
| 20260905175012 | 13 | 0.0 | 0.0 | 0.00 | 0.00 | 0.00 | 80 | 1002.0 | |
| 20260905174008 | 13 | 0.0 | 0.0 | 0.00 | 0.00 | 0.00 | 88 | 1001.5 | |
| 20260905172016 | 13 | 0.0 | 0.0 | 0.00 | 0.00 | 0.00 | 90 | 1001.3 | |
| 20260905171015 | 13 | 0.0 | 0.0 | 0.00 | 0.00 | 0.00 | 90 | 1001.2 | |
| 20260905161013 | 16 | 0.0 | 0.0 | 0.00 | 0.00 | 0.00 | 70 | 1000.8 | |
| 20260905155011 | 16 | 0.0 | 0.0 | 0.00 | 0.00 | 0.00 | 67 | 1000.6 | |
| 20260905151016 | 18 | 0.0 | 0.0 | 0.00 | 0.00 | 0.00 | 59 | 1000.2 | |
| 20260905150012 | 18 | 0.0 | 0.0 | 0.00 | 0.00 | 0.00 | 59 | 1000.2 | |
| 20260905143016 | 19 | 0.0 | 0.0 | 0.00 | 0.00 | 0.00 | 52 | 1000.2 | |
| 20260905141013 | 20 | 0.0 | 0.0 | 0.00 | 0.00 | 0.00 | 53 | 1000.1 | |
| 20260905135012 | 20 | 0.0 | 0.0 | 0.00 | 0.00 | 0.00 | 54 | 1000.0 | |
| 20260905134015 | 20 | 0.0 | 0.0 | 0.00 | 0.00 | 0.00 | 55 | 999.8 | |
| 20260905133013 | 20 | 0.0 | 0.0 | 0.00 | 0.00 | 0.00 | 55 | 999.8 | |
| 20260905120008 | 19 | 0.0 | 0.0 | 0.00 | 0.00 | 0.00 | 57 | 999.6 | |
| 20260905114013 | 18 | 0.0 | 0.0 | 0.00 | 0.00 | 0.00 | 58 | 999.8 | |
| 20260905113017 | 18 | 0.0 | 0.0 | 0.00 | 0.00 | 0.00 | 58 | 999.8 | |
| 20260905105014 | 18 | 0.0 | 0.0 | 0.00 | 0.00 | 0.00 | 62 | 999.7 | |
| 20260905103016 | 18 | 0.0 | 0.0 | 0.00 | 0.00 | 0.00 | 63 | 999.6 | |
| 20260905102008 | 17 | 0.0 | 0.0 | 0.00 | 0.00 | 0.00 | 65 | 999.6 | |
| 20260905101014 | 17 | 0.0 | 0.0 | 0.00 | 0.00 | 0.00 | 67 | 999.5 | |
| 20260905095009 | 17 | 0.0 | 0.0 | 0.00 | 0.00 | 0.00 | 68 | 999.4 | |
| 20260905094013 | 17 | 0.0 | 0.0 | 0.00 | 0.00 | 0.00 | 70 | 999.4 | |
| 20260905093013 | 17 | 0.0 | 0.0 | 0.00 | 0.00 | 0.00 | 70 | 999.4 | |
| 20260905091008 | 17 | 0.0 | 0.0 | 0.00 | 0.00 | 0.00 | 72 | 999.2 | |
| 20260905085015 | 17 | 0.0 | 0.0 | 0.00 | 0.00 | 0.00 | 73 | 999.0 | |
| 20260905083014 | 17 | 0.0 | 0.0 | 0.00 | 0.00 | 0.00 | 71 | 998.9 | |
| 20260905081014 | 17 | 0.0 | 0.0 | 0.00 | 0.00 | 0.00 | 73 | 998.4 | |
| 20260905080012 | 17 | 0.0 | 0.0 | 0.00 | 0.00 | 0.00 | 73 | 998.4 | |
| 20260905075012 | 17 | 0.0 | 0.0 | 0.00 | 0.00 | 0.00 | 73 | 998.3 | |
| 20260905074008 | 17 | 0.0 | 0.0 | 0.00 | 0.00 | 0.00 | 73 | 998.3 | |
| 20260905073013 | 17 | 0.0 | 0.0 | 0.00 | 0.00 | 0.00 | 73 | 998.3 | |
| 20260905071012 | 16 | 0.0 | 0.0 | 0.00 | 0.00 | 0.00 | 74 | 998.0 | |
| 20260905070009 | 16 | 0.0 | 0.0 | 0.00 | 0.00 | 0.00 | 74 | 998.0 | |
| 20260905064013 | 16 | 0.0 | 0.0 | 0.00 | 0.00 | 0.00 | 78 | 997.4 | |
| 20260905061012 | 16 | 0.0 | 0.0 | 0.00 | 0.00 | 0.00 | 81 | 996.8 | |
| 20260905055010 | 16 | 0.0 | 0.0 | 0.00 | 0.00 | 0.00 | 82 | 996.7 | |
| 20260905054014 | 16 | 0.0 | 0.0 | 0.00 | 0.00 | 0.00 | 80 | 996.4 | |
| 20260905053010 | 16 | 0.0 | 0.0 | 0.00 | 0.00 | 0.00 | 80 | 996.4 | |
| 20260905041015 | 16 | 0.0 | 0.0 | 0.00 | 0.00 | 0.00 | 83 | 995.2 | |
| 20260905040010 | 16 | 0.0 | 0.0 | 0.00 | 0.00 | 0.00 | 83 | 995.2 | |
| 20260905034018 | 16 | 0.0 | 0.0 | 0.00 | 0.00 | 0.00 | 84 | 994.7 | |
| 20260905030027 | 16 | 0.0 | 0.0 | 0.00 | 0.00 | 0.00 | 84 | 994.3 | |
| 20260905025017 | 16 | 0.0 | 0.0 | 0.00 | 0.00 | 0.00 | 84 | 994.2 | |
| 20260905023014 | 16 | 0.0 | 0.0 | 0.00 | 0.00 | 0.00 | 83 | 994.5 | |
| 20260905021012 | 16 | 0.0 | 0.0 | 0.00 | 0.00 | 0.00 | 82 | 994.1 | |
| 20260905015012 | 16 | 0.0 | 0.0 | 0.00 | 0.00 | 0.00 | 83 | 994.0 | |
| 20260905012010 | 17 | 0.0 | 0.0 | 0.00 | 0.00 | 0.00 | 86 | 994.0 | |
| 20260905010015 | 17 | 0.0 | 0.0 | 0.00 | 0.00 | 0.00 | 87 | 994.0 | |
| 20260905003016 | 17 | 0.0 | 0.0 | 0.00 | 0.00 | 0.00 | 87 | 993.9 |